User: anonymous   Login
Location: Iesi
(43.5167°N, 13.2333°E)
Time: 11:04:19
(UTC+00:00)
Language:

Cosmos 1092 Rocket - Orbit

View from above orbital plane
View from above orbital plane
View from above satellite
View from above satellite

Ground track
Ground track

The orbit data is extracted from the following two-line orbital elements,

1 11327U 79030B   20304.90005205 -.00000071 +00000-0 -86920-4 0  9992
2 11327 082.9468 101.3439 0027134 333.9586 134.5790 13.76948714088429
Epoch (UTC): 30 October 2020 21:36:04
Eccentricity: 0.0027134
inclination: 82.9468°
perigee height: 955 km
apogee height: 994 km
right ascension of ascending node: 101.3439°
argument of perigee: 333.9586°
revolutions per day: 13.76948714
mean anomaly at epoch: 134.5790°
orbit number at epoch: 8842

The dashed part of the orbit path shows where the satellite is in the earth's shadow,  

DLR